Location: Franzen
(48.6167°N, 15.3833°E)
Time: 11:53:50
(UTC+00:00)

Cosmos 1553 Rocket - Pass Details

Date: 22 April 2021
Orbit: 942 x 1007 km, 82.9° (Epoch: 16 May)

Event Time Altitude Azimuth Distance (km) Brightness Sun altitude
Exits shadow 20:48:24 47° 151° (SSE) 1,236 4.1 -22.6°
Maximum altitude 20:50:01 64° 94° (E) 1,045 3.9 -22.7°
Drops below altitude 10° 20:56:03 10° 14° (NNE) 2,687 6.8 -23.3°
Sets 20:58:35 0° 12° (NNE) 3,643 7.7 -23.5°
